Regional Weather Roundup
Issued by NWS Grand Forks, ND

Home | Current Version | Previous Version | Graphics & Text | Print | Product List | Glossary On
Versions: 1 2 3 4 5 6 7 8 9 10 11 12 13 14 15 16 17 18 19 20 21 22 23 24 25 26 27 28 29 30 31 32 33 34 35 36 37 38 39 40 41 42 43 44 45 46 47 48 49 50
000
ASUS43 KFGF 231910
RWRFGF
PRAIRIE TO PINES  WEATHER ROUNDUP
NATIONAL WEATHER SERVICE EASTERN NORTH DAKOTA/GRAND FORKS ND
200 PM CDT SAT JUL 23 2016

 **SATELLITE DATA USED TO AUGMENT SKY COVER AT AUTOMATED STATIONS**
 *****  WEATHER ACROSS EASTERN NORTH DAKOTA  *****

CITY           SKY/WX    TMP DP  RH WIND       PRES   REMARKS
GRAND FORKS    CLOUDY    69  67  93 E16       29.70F
GRAND FRKS AFB CLOUDY    67  67 100 E12       29.71R
GRAND FRKS NWS   N/A     64 N/A N/A E7          N/A
DEVILS LAKE    CLOUDY    73  67  81 SE10      29.74R
FARGO          PTSUNNY   73  68  84 E20G25    29.76F
WAHPETON ARPT  CLOUDY    75  64  69 S7        29.79F
$$

 ***** WEATHER ACROSS CENTRAL AND WESTERN NORTH DAKOTA  *****

CITY           SKY/WX    TMP DP  RH WIND       PRES   REMARKS
BISMARCK       CLOUDY    80  68  66 W18G24    29.79S
MINOT          PTSUNNY   79  66  64 SW9       29.78F
JAMESTOWN      CLOUDY    77  68  73 SE12      29.74S
MINOT AFB      MOSUNNY   76  67  74 W9        29.76F
GARRISON         N/A     76  67  73 NW14G20   29.81S
WILLISTON      MOSUNNY   81  48  31 W18G30    29.83S
DICKINSON      SUNNY     78  49  35 NW16G26   29.88R
HETTINGER      SUNNY     84  49  29 N18G32    29.91R
$$

 *****  OTHER AIRPORT OBSERVATIONS IN OUR AREA  *****

CITY           SKY/WX    TMP DP  RH WIND       PRES   REMARKS
WALHALLA       NOT AVBL
GRAFTON AIRPOR FAIR      66  66 100 E17G23    29.68F
VALLEY CITY AR FAIR      73  73 100 E10       29.76F
CANDO          NOT AVBL
CAVALIER APRT  MOCLDY    68  64  88 S7G17     29.71R
GWINNER        CLOUDY    73  66  78 E8        29.78R
SHEYENNE NWR     N/A     76  67  73 E16       29.95S
ROLLA            N/A     75  64  69 SW7       29.78F
 ***** THE ABOVE OBSERVATIONS ARE NON NWS ARE NOT QUALITY
       CONTROLLED AND MAY MIS-REPORT RAIN FOR SNOW...
$$

  *****  WEATHER ACROSS NORTHERN MINNESOTA  *****

CITY           SKY/WX    TMP DP  RH WIND       PRES   REMARKS
FLAG ISLAND    DRIZZLE   70  64  83 NE12      29.86S
WARROAD        LGT RAIN  72  68  88 NE12      29.83F
ROSEAU         CLOUDY    70  64  83 NE9       29.81F
HALLOCK        HVY RAIN  66  64  94 E17G23    29.74F
THF RVR FALLS  TSTM      66  64  94 N17G38    29.80  FOG
BAUDETTE       CLOUDY    76  64  66 E9        29.85S
WASKISH        CLOUDY    81  66  61 SE9G23    29.84F
CROOKSTON      RAIN      64  64 100 NE17      29.76F
STEPHEN NDAWN    N/A     64  64 100 E20         N/A
GREENBUSH NDAW   N/A     66  64  94 E1          N/A
$$
  *****  WEATHER ACROSS CENTRAL AND WEST MINNESOTA  *****

CITY           SKY/WX    TMP DP  RH WIND       PRES   REMARKS
FOSSTON        CLOUDY    75  66  73 S9        29.85R
BEMIDJI        CLOUDY    77  64  65 SE14G21   29.85F
PARK RAPIDS    LGT RAIN  74  69  85 SE14      29.84S
ELBOW LAKE     CLOUDY    75  69  79 E6        29.81R
WADENA         CLOUDY    72  68  88 SE14      29.83F
DETROIT LAKES  TSTM      73  68  83 SE5       29.84S
MOORHEAD       CLOUDY    75  70  83 E5        29.80F
FERGUS FALLS   CLOUDY    75  66  73 SE3       29.80F
MORRIS MN      PTSUNNY   75  70  83 SE12G18   29.80R
STAPLES        LGT RAIN  70  66  88 SE7       29.86S
$$
  *****  WEATHER ELSEWHERE ACROSS MINNESOTA  *****

CITY           SKY/WX    TMP DP  RH WIND       PRES   REMARKS
DULUTH         CLOUDY    73  62  68 E10       29.92F
INTRNTL FALLS  CLOUDY    76  64  66 SE7       29.90R
ELY            CLOUDY    72  57  60 SE7       29.97S
CLOQUET        CLOUDY    70  59  68 E8        29.91F
WHEATON        CLOUDY    81  72  74 SE6       29.80R
BRAINERD       RAIN      70  69  97 SW12      29.87R FOG
HIBBING        CLOUDY    73  61  65 E6        29.91F
ALEXANDRIA     CLOUDY    72  68  87 SE15      29.85F
SAINT CLOUD    RAIN      69  69 100 E8        29.89F FOG
MINNEAPOLIS    CLOUDY    74  71  91 SE17      29.86F
$$

  *****  WEATHER ACROSS SOUTH DAKOTA  *****

CITY           SKY/WX    TMP DP  RH WIND       PRES   REMARKS
SIOUX FALLS    CLOUDY    89  73  59 S12G17    29.78S HX  97
BROOKINGS      NOT AVBL
WATERTOWN      MOSUNNY   86  71  60 S10       29.79R HX  91
HURON          SUNNY     90  70  51 S16       29.72S HX  95
SISSETON         N/A     78  70  76 S12       29.77R
ABERDEEN       MOSUNNY   85  73  67 SE3       29.74F HX  91
MITCHELL       SUNNY     91  69  48 S13       29.72F HX  96
PIERRE         SUNNY     94  66  39 NW24      29.74R HX  97
MOBRIDGE       MOSUNNY   87  71  58 N14       29.75R HX  93
RAPID CITY     SUNNY     88  45  22 NW24G31   29.95S
$$

  *****  SOME WEATHER IN NEARBY STATES *****

CITY           SKY/WX    TMP DP  RH WIND       PRES   REMARKS
GLASGOW MT     SUNNY     77  49  37 W25G32    29.88S
GREAT FALLS MT MOSUNNY   76  39  26 W10       30.08F
CHEYENNE WY    MOSUNNY   91  37  15 W9G22     30.14F
SCOTTSBLUFF NE SUNNY     93  50  23 NW14      29.99F HX  90
OMAHA NE       CLOUDY    89  73  59 S13       29.83S HX  97
DES MOINES IA  CLOUDY    88  77  69 S3        29.88R HX 100
DAVENPORT IA   CLOUDY    87  79  76 SE9       29.95F HX 101
CHICAGO IL     CLOUDY    89  73  59 VRB3      29.97F HX  97
EAU CLAIRE WI  LGT RAIN  74  73  97 S8        29.97R
LA CROSSE WI   LGT RAIN  73  70  90 E6        29.93F
$$

  *****  SOME NATIONAL WEATHER *****

CITY           SKY/WX    TMP DP  RH WIND       PRES   REMARKS
LA GUARDIA NY  MOSUNNY   95  57  27 W16G22    29.81S HX  94
RALEIGH NC     MOSUNNY   91  72  53 SW7       29.97F HX  98
ATLANTA GA     CLOUDY    91  68  46 SW7       30.02F HX  95
NEW ORLEANS LA PTSUNNY   92  75  57 CALM      29.99F HX 103
OKLAHOMA CITY  MOSUNNY   99  63  30 S13G24    29.95F HX 101
ALBUQUERQUE NM MOSUNNY   92  44  19 VRB3      30.14F
SALT LAKE CITY MOSUNNY   89  29  11 NW5       30.12F
LOS ANGELES CA PTSUNNY   82  63  52 W12       29.81F
BOISE ID       SUNNY     76  38  25 W6        30.16F
SEATTLE WA     PTSUNNY   64  55  72 CALM      30.28F
$$

*** WEATHER ACROSS MANITOBA...SASKATCHEWAN AND ONTARIO ***
                ***ONTARIO***

CITY           SKY/WX    TMP DP  RH WIND       PRES   REMARKS
GERALDTON      PTSUNNY   77  54  44 SE12      29.97F
THUNDER BAY    PTSUNNY   73  61  64 E12       30.01R
SIOUX LOOKOUT  CLOUDY    72  64  78 E3        29.94R
TORONTO        PTSUNNY   90  55  31 N9G17     29.91S
BIG TROUT LK   SUNNY     70  52  52 SE10      29.94F
PICKLE LAKE    CLOUDY    77  54  44 S14       29.94F
DRYDEN         PTSUNNY   73  64  73 N2        29.94R
KENORA         CLOUDY    66  63  88 NE7       29.90S
$$
                *** MANITOBA***

CITY           SKY/WX    TMP DP  RH WIND       PRES   REMARKS
BRANDON        MOSUNNY   77  68  73 SW10      29.73F
DAUPHIN        PTSUNNY   72  68  88 VRB2      29.70S
ISLAND LAKE    NOT AVBL
PILOT MOUND      N/A     73  63  68 N3          N/A
THE PAS        MOSUNNY   68  57  68 E12G17    29.69F
THOMPSON       CLOUDY    68  59  73 S7G21     29.76R
WINNIPEG       PTSUNNY   68  64  88 SE12G17   29.77F
LYNN LAKE      CLOUDY    64  59  82 MISG      29.72S
CHURCHILL      LGT RAIN  59  54  82 S13       29.70S
GILLAM         PTSUNNY   73  50  43 S18G25    29.79S
$$
                ***SASKATCHEWAN***

CITY           SKY/WX    TMP DP  RH WIND       PRES   REMARKS
ESTEVAN        MOSUNNY   73  54  49 W16       29.76F
KINDERSLEY     PTSUNNY   70  54  56 NW15G22   29.90R
LLOYDMINSTER   PTSUNNY   72  50  46 NW18G25   29.87S
PRINCE ALBERT  PTSUNNY   68  64  88 W6        29.73F
REGINA         PTSUNNY   70  61  73 W18G25    29.71R
YORKTON        PTSUNNY   72  64  78 SW15      29.63F
N. BATTLEFORD  MOSUNNY   73  52  46 NW16G28   29.83R
LA RONGE       PTSUNNY   72  63  73 SE9       29.69F
SASKATOON      PTSUNNY   73  61  64 NW16G22   29.77S
SWIFT CURRENT  CLOUDY    63  55  77 NW23G29   29.90R
$$
NOTE: THESE ARE AUTOMATED STATIONS WITH LIMITED QUALITY CONTROL
      "FAIR" INDICATES FEW OR NO CLOUDS BELOW 12,000 FEET WITH NO
      SIGNIFICANT WEATHER AND/OR OBSTRUCTIONS TO VISIBILITY.
      SKY/WX - SKY CONDITION AND SIGNIFICANT WEATHER.
      TMP - AIR TEMPERATURE.    DP   - DEWPOINT TEMPERATURE.
      RH  - RELATIVE HUMIDITY.  PRES - PRESSURE.
      HX  - HEAT INDEX.         WCI  - WIND CHILL INDEX.
$




USA.gov is the U.S. government's official web portal to all federal, state and local government web resources and services.